www.pogodaiklimat.ru

Погода и климат >> Архив погоды >> Россия >> Иркутская область >> Черемхово


ПОГОДА в Черемхово

  • Прогноз погоды в Черемхово
  • Монитор погоды в Черемхово
  • Климат города

АРХИВ ПОГОДЫ в Черемхово

Время (UTC), дата Ветер
(напр.,м/с)
 
Видим.   Явления Облачность Т
(С)
Тd
(С)
f
(%)
Тe
(С)
Тes
(С)
Комфортность P
(гПа)
Po
(гПа)
Тmin
(С)
Tmax
(С)
R
(мм)
R24
(мм)
S
(см)
18 11.12 ЮВ 2 н/о 4 балла -28.6 -31.8 74 -36 -36 опасность
обморожения
1040.1 957.3
21 11.12 ЮВ 2 н/о 3/0
[Ci fib]
-29.6 -32.9 73 -37 -37 опасность
обморожения
1038.8 955.9
00 12.12 ЮВ 3
{4}
н/о 2 балла -28.6 -31.9 73 -38 -38 опасность
обморожения
1038.6 956.0 -30.1
03 12.12 ЮВ 4 4000 м дымка 4/0
[Cs]
-24.5 -27.4 77 -34 -34 опасность
обморожения
1034.7 953.8
06 12.12 В 4 4000 м дымка 7 баллов -20.6 -22.9 82 -30 -29 1031.6 952.0
09 12.12 В 4 10 км 10/0
[As op Cs]
-19.9 -22.2 82 -29 -29 1029.7 950.5
12 12.12 СЗ 1
{6}
н/о 10 баллов -20.7 -23.0 82 -24 -24 1031.6 952.0 -19.7
15 12.12 СЗ 3 н/о 10/0
[As op]
-19.5 -21.7 83 -27 -27 1031.5 952.3
18 12.12 З 2 н/о 10 баллов -19.2 -21.3 83 -25 -25 1034.1 954.7
21 12.12 З 1 н/о слабый снег 10/0
[As op]
-19.2 -21.4 83 -22 -22 1034.2 954.9
00 13.12 З 1
{4}
н/о слабый снег 7 баллов -20.4 -22.7 82 -23 -23 1037.3 957.3 -20.7 0.0
03 13.12 З 1 4000 м слабый снег 10/0
[As op]
-16.4 -18.3 85 -19 -19 1036.8 958.1
06 13.12 З 1 4000 м слабый снег 10 баллов -12.5 -14.3 86 -15 -15 1037.6 960.0
09 13.12 З 1 10 км слабый снег 10/0
[As op Cs]
-13.9 -15.6 87 -16 -16 1037.4 959.5
12 13.12 ЮЗ 1
{2}
н/о слабый снег 10 баллов -15.9 -17.6 87 -19 -19 1040.1 961.3 -12.1 0.6
15 13.12 З 1 н/о слабый ливневой снег 10/10 600 м
[Cb cap]
-12.9 -14.4 88 -15 -15 1038.9 961.1
18 13.12 З 1 н/о слабый ливневой снег 10 баллов -14.7 -16.2 88 -17 -17 1041.3 962.7
21 13.12 З 1 н/о {ливн. осадки} 8/3 600 м
[Cb cap Ci sp]
-17.0 -18.9 85 -20 -20 1039.9 960.9
00 14.12 штиль 0
{2}
н/о слабый ливневой снег 10 баллов -16.7 -18.6 85 -17 -17 1040.4 961.3 -18.1 0.6
03 14.12 З 1 4000 м слабый снег {ливн. осадки} 10/0
[As op]
-14.2 -15.8 88 -17 -17 1039.6 961.4
06 14.12 З 1 4000 м слабый снег 10 баллов -12.3 -13.9 88 -15 -15 1040.5 962.7
09 14.12 СЗ 1 4000 м слабый снег 10/0
[As op Cs]
-14.1 -15.7 88 -17 -17 1040.6 962.3
12 14.12 СЗ 5
{9}
н/о слабый снег 10 баллов -15.0 -17.7 80 -24 -24 1044.2 965.3 -11.9 1
15 14.12 СЗ 2 н/о слабый снег 10/0
[As op]
-18.2 -20.3 84 -24 -24 1046.2 966.3
18 14.12 З 2 н/о слабый снег 10 баллов -19.0 -21.1 83 -25 -25 1048.4 968.0
21 14.12 З 2 н/о слабый снег 10/0
[As op]
-17.5 -19.5 84 -23 -23 1046.4 966.7
00 15.12 З 1
{8}
н/о слабый снег 10 баллов -16.4 -18.2 86 -19 -19 1047.5 968.0 -19.3 0.9
03 15.12 З 2 4000 м слабый снег 10/0
[As op]
-14.2 -15.9 87 -19 -19 1045.6 966.9
06 15.12 З 2 4000 м слабый снег 10 баллов -11.3 -12.7 89 -16 -16 1044.5 966.7
09 15.12 СЗ 2 4000 м слабый снег 10/0
[As op]
-10.4 -11.7 90 -15 -15 1043.7 966.3
12 15.12 З 1
{7}
н/о слабый снег 10 баллов -11.5 -12.9 89 -14 -14 1046.0 968.0 -10.4 2
15 15.12 ЮЗ 1 н/о {снег} 6/3 600 м
[Cb cap Ci sp]
-13.4 -14.9 88 -16 -16 1044.0 965.7
18 15.12 З 1 н/о 7 баллов -11.2 -12.6 89 -13 -13 1043.0 965.3
21 15.12 ЮЗ 2 н/о слабый ливневой снег 10/10 600 м
[Cb cap]
-10.6 -12.1 89 -15 -15 1038.4 961.3
00 16.12 З 3
{7}
н/о слабый ливневой снег 10 баллов -8.8 -10.3 89 -15 -15 1037.9 961.3 -13.6 0.4
03 16.12 З 3 1000 м ливневой снег 10/10 600 м
[Cb cap]
-7.5 -8.8 90 -13 -13 1035.7 959.7
06 16.12 СЗ 2 4000 м слабый ливневой снег 10 баллов -6.9 -8.3 90 -11 -11 1034.5 958.7
09 16.12 штиль 0 4000 м слабый ливневой снег 10/10 600 м
[Cb cap]
-7.5 -8.6 92 -8 -8 1032.3 956.6
12 16.12 ЮЗ 1
{7}
н/о слабый ливневой снег 10 баллов -7.7 -8.6 93 -10 -10 1033.3 957.3 -6.7 3
15 16.12 З 2 н/о слабый ливневой снег 10/10 600 м
[Cb cap]
-7.4 -8.4 93 -12 -12 1031.0 955.4
18 16.12 СЗ 4 н/о слабый ливневой снег 10 баллов -8.2 -9.4 91 -15 -15 1032.0 956.0
21 16.12 СЗ 5
{13}
н/о слабый ливневой снег 10 баллов -9.7 -11.2 89 -18 -18 1033.9 957.3
00 17.12 СЗ 6
{13}
н/о слабый ливневой снег 10 баллов -10.7 -12.4 87 -19 -19 1037.1 960.0 -10.7 3
03 17.12 СЗ 5
{14}
10 км позёмок 10 баллов -12.3 -15.3 78 -20 -20 1040.5 962.7 -12.3
06 17.12 СЗ 3 20 км 10 баллов -11.9 -15.1 77 -18 -18 1041.8 964.0
09 17.12 СЗ 3 20 км 9/9 600 м
[Cb cap]
-11.5 -14.2 80 -17 -17 1040.8 963.3
12 17.12 СЗ 2
{14}
н/о слабый ливневой снег 9 баллов -13.4 -14.8 89 -18 -18 1043.7 965.3 -10.7 0.4
15 17.12 СЗ 3 н/о слабый ливневой снег 10/10 600 м
[Cb cap]
-12.1 -14.4 83 -18 -18 1042.8 964.9
18 17.12 З 1 н/о слабый ливневой снег 9 баллов -13.0 -14.6 88 -15 -15 1043.5 965.3
21 17.12 Ю 1 н/о слабый ливневой снег 10/6 600 м
[Cb cap Ci sp]
-11.6 -13.0 89 -14 -14 1040.7 963.2
00 18.12 Ю 2
{7}
н/о слабый ливневой снег 10 баллов -12.4 -13.8 89 -17 -17 1040.5 962.7 -14.2 0.4
03 18.12 Ю 2 4000 м ливневой снег 10/10 300 м
[Cb cap]
-10.5 -11.9 89 -15 -15 1036.9 959.9
06 18.12 ЮЗ 3 4000 м ливневой снег 10 баллов -8.0 -9.3 90 -14 -14 1034.9 958.7
09 18.12 ЮЗ 1 10 км слабый ливневой снег 10/10 600 м
[Cb cap]
-8.0 -9.3 90 -10 -10 1033.6 957.6
12 18.12 З 3
{7}
н/о слабый ливневой снег 10 баллов -5.7 -6.6 93 -11 -11 1034.2 958.7 -5.6 2
15 18.12 СЗ 3
{10}
н/о слабый ливневой снег 10 баллов -4.1 -5.1 93 -10 -10 1035.1 960.0

 

Местоположение метеостанции Черемхово (Иркутская область, Россия): широта 53.18 долгота 103.00 высота над уровнем моря 598 м.

В архиве по умолчанию представлена погода в Черемхово за последнюю неделю. Архивные данные за месяц целиком и за предыдущие месяцы, начиная с января 2011 года, Вы можете получить, выбрав интересующий диапазон дат из раскрывающегося списка и нажав кнопку "Ввод!".

Внимание! Время в таблицах - всемирное. Для получения местного времени необходимо прибавить поправку, которая в Черемхово равна 8 ч.

Смотрите также архив погоды в соседних городах и на ближайших метеорологических станциях:

Погода в Заларях (Иркутская область, Россия) (53 км)
Погода в Инге (Иркутская область, Россия) (77 км)
Погода в Балаганске (Иркутская область, Россия) (91 км)
Погода в Ангарск (Иркутская область, Россия) (95 км)
Погода в Зиме (Иркутская область, Россия) (106 км)
Погода в Хомутово (Иркутская область, Россия) (119 км)
Погода в Усть-Ордынском (Иркутская область, Россия) (121 км)
Погода в Дабадах (Иркутская область, Россия) (122 км)
Погода в Иркутске (Иркутская область, Россия) (134 км)
Погода в Иркутск аэропорт (Иркутская область, Россия) (134 км)

Пояснения к столбцам:

Ветер - указаны скорость ветра в м/с - средняя за 10 мин, порывы в срок и между сроками (в фигурных скобках) и направление, откуда дует ветер: С - северный, СВ - северо-восточный, В - восточный, ЮВ - юго-восточный, Ю - южный, ЮЗ - юго-западный, З - западный, СЗ - северо-западный.
Видимость - горизонтальная дальность видимости в метрах или километрах. При видимости от 1 до 10 км при отсутствии осадков обычно наблюдается дымка, при ухудшении видимости до 1 км и менее - туман. В сухую погоду видимость может ухудшаться дымом, пылью или мглою.
Явления - указаны атмосферные явления, наблюдавшиеся в срок или в последний час перед сроком; фигурными скобками обозначены явления, наблюдавшиеся между сроками (за 1-3 часа до срока); квадратными скобками обозначены град или гололедные отложения с указанием их диаметра в мм.
Облачность - указаны через наклонную черту общая и нижняя облачность в баллах и высота нижней границы облаков в метрах; квадратными скобками обозначены формы облаков: Ci - перистые, Cs - перисто-слоистые, Cc - перисто-кучевые, Ac - высококучевые, As - высокослоистые, Sc - слоисто-кучевые, Ns - слоисто-дождевые, Cu - кучевые, Cb - кучево-дождевые. Подробнее классификацию облаков см. в Атласе облаков (PDF).
T - Температура воздуха - температура, измеренная на высоте 2 м над землей.
Td - Температура точки росы - температура, при понижении до которой содержащийся в воздухе водяной пар достигнет насыщения.
f - Относительная влажность воздуха - влажноcть воздуха, измеренная на высоте 2 м над землей.
Te - Эффективная температура - температура, которую ощущает одетый по сезону человек в тени. Характеристика душности погоды. При расчете учитывается влияние влажности воздуха и скорости ветра на теплоощущения человека.
Tes - Эффективная температура на солнце - температура, которую ощущает человек, с поправкой на солнечный нагрев. Характеристика знойности погоды. Зависит от высоты солнца над горизонтом, облачности и скорости ветра. Ночью, в пасмурную погоду, а также при ветре 12 м/с и более поправка равна нулю.
P - Атмосферное давление - приведенное к уровню моря атмосферное давление.
Po - Атмосферное давление - измеренное на уровне метеостанции атмосферное давление.
Tmin - Минимальная температура - минимум температуры воздуха на высоте 2 м над землей.
Tmax - Максимальная температура - максимум температуры воздуха на высоте 2 м над землей.
R - Количество осадков - Количество выпавших осадков за период времени, мм. При наведении курсора мыши на число - период времени, за который выпало указанное количество осадков.
R24 - Количество осадков - Количество выпавших осадков за 24 часа, мм.
S - Снежный покров - Высота снежного покрова, см. При наведении курсора мыши на число - состояние снежного покрова и степень покрытия местности в баллах.